Regional Weather Roundup
Issued by NWS

Home | Current Version | Previous Version | Text Only | Print | Product List | Glossary On
Versions: 1 2 3 4 5 6 7 8 9 10 11 12 13 14 15 16 17 18 19 20 21 22 23 24 25 26 27
000
ASCA42 TJSJ 231810
RWRPR
PUERTO RICO/U.S. VIRGIN ISLANDS HOURLY WEATHER ROUNDUP
NATIONAL WEATHER SERVICE SAN JUAN PR
200 PM AST SUN APR 23 2017

PRZ001>002-007>008-010-231900-
PUERTO RICO

CITY           SKY/WX    TMP DP  RH WIND       PRES   REMARKS
SAN JUAN LMM   MOSUNNY   88  73  62 E17       29.94F HX  96
AGUADILLA      LGT RAIN  81  70  69 E10       29.94F
CEIBA          PTSUNNY  N/A N/A N/A E17       29.97F
$$

VIZ001>002-231900-
U.S. VIRGIN ISLANDS

CITY           SKY/WX    TMP DP  RH WIND       PRES   REMARKS
CHARLOTTE AMA  SUNNY     84  72  65 SE18G28   29.95F
CHRISTIANSTED  CLOUDY    82  73  74 E18       29.95F
$$

HOURLY WEATHER ROUNDUP FOR THE NEWS MEDIA

CITY           SKY/WX    TMP DP  RH WIND       PRES   REMARKS
ORLANDO        CLOUDY    83  66  56 E5        29.83F
NEW YORK       PTSUNNY   57  41  55 S14       30.12F
NEWARK         PTSUNNY   64  34  32 VRB7      30.09F
CHICAGO        SUNNY     69  24  18 N5        30.08F
HARTFORD       SUNNY     57  41  55 VRB6      30.08R
BOSTON         SUNNY     54  39  57 E14       30.07F
DALLAS         MOSUNNY   69  41  36 NW15G24   30.13F
PHILADELPHIA   PTSUNNY   63  40  42 VRB5      30.11F
LOS ANGELES    MOSUNNY   73  54  51 E6        29.87F
WASHINGTON DC  PTSUNNY   58  42  55 VRB5      30.11F



USA.gov is the U.S. government's official web portal to all federal, state and local government web resources and services.